Home   Weather   Sterling Heights   Past weeks
Flag for USA

Past Weather in Sterling Heights, Michigan, USA — Yesterday and Last 2 Weeks

Now
29 °F

Clear.


Feels Like: 22 °F
Forecast: 42 / 28 °F
Wind: 7 mph from Northeast

Location: Selfridge Air National Guard Base

Current Time: Mar 25, 2019 at 8:10:51 am

Latest Report: Mar 25, 2019 at 6:56 am


Visibility: 10 mi

Pressure: 30.22 "Hg

Humidity: 65%

Dew Point: 19 °F

Location of Sterling HeightsLocation

Past Weather in Sterling Heights — Graph

°F

Sterling Heights Temperature Yesterday

Maximum temperature yesterday: 58 °F (at 4:56 pm)
Minimum temperature yesterday: 32 °F (at 7:55 am)
Average temperature yesterday: 43 °F

High & Low Weather Summary for the Past Weeks

 TemperatureHumidityPressure
High59 °F (Mar 14, 9:33 pm)100% (Mar 10, 6:38 am)30.42 "Hg (Mar 10, 6:38 am)
Low19 °F (Mar 12, 7:56 am)30% (Mar 24, 4:56 pm)29.39 "Hg (Mar 14, 8:56 pm)
Average37 °F80%30.05 "Hg
* Reported Mar 10 6:38 am — Mar 25 6:56 am, Sterling Heights. Weather by CustomWeather, © 2019

Note: Actual official high and low records may vary slightly from our data, if they occured in-between our weather recording intervals... More about our weather records

Advertising

Sterling Heights Weather History for the Previous 24 Hours

Scroll right to see more
 ConditionsComfort  
Time TempWeatherWind HumidityBarometerVisibility
6:56 am
Mon, Mar 25
29 °FClear.7 mph65%30.22 "Hg10 mi
5:56 am29 °FClear.10 mph65%30.19 "Hg10 mi
4:56 am28 °FClear.12 mph83%30.18 "Hg10 mi
3:56 am29 °FClear.9 mph86%30.19 "Hg10 mi
1:56 am31 °FClear.14 mph96%30.18 "Hg10 mi
11:56 pm
Sun, Mar 24
34 °FOvercast.12 mph90%30.17 "Hg10 mi
10:56 pm36 °FMostly cloudy.10 mph86%30.15 "Hg10 mi
9:56 pm38 °FMostly cloudy.10 mph75%30.13 "Hg10 mi
8:56 pm41 °FOvercast.15 mph66%30.10 "Hg10 mi
7:56 pm52 °FMostly cloudy.6 mph42%30.06 "Hg10 mi
6:56 pm53 °FPartly sunny.9 mph39%30.06 "Hg10 mi
4:56 pm58 °FBroken clouds.10 mph30%30.04 "Hg10 mi
3:56 pm57 °FPartly sunny.8 mph34%30.04 "Hg10 mi
1:55 pm53 °FPartly sunny.12 mph37%30.10 "Hg10 mi
12:55 pm50 °FMostly cloudy.10 mph41%30.12 "Hg10 mi
11:55 am48 °FMostly cloudy.7 mph41%30.15 "Hg10 mi
10:55 am47 °FMostly cloudy.7 mph47%30.16 "Hg10 mi
9:55 am41 °FMostly cloudy.6 mph58%30.17 "Hg10 mi
8:55 am36 °FPartly sunny.6 mph72%30.18 "Hg10 mi
Weather by CustomWeather, © 2019

See weather overview